{"data":{"norad_id":62246,"epoch":"2026-09-22T19:38:07.152576Z","epoch_age_seconds":109648,"freshness":"FRESH","line1":"1 62246U 24232K   26265.81813834  .00000088  00000+0  11810-3 0  9999","line2":"2 62246  89.0171  12.7307 0016291  94.1836 266.1178 13.51029188137615","mean_motion":13.51029188,"eccentricity":0.0016291,"inclination_deg":89.0171,"raan_deg":12.7307,"arg_perigee_deg":94.1836,"mean_anomaly_deg":266.1178,"bstar":0.0001181,"rev_number":13761,"period_min":106.58541005555,"perigee_km":1056.3430563915,"apogee_km":1080.6056054298,"semimajor_km":7446.6113309107,"source":"CELESTRAK","updated_at":"2026-09-23T09:00:21.335088Z"}}